Location: Potomac
(46.8816°N, 113.5795°W)
Time: 10:54:55
(UTC+00:00)

SEEDS - Visible Passes

Search period start: 30 June 2022 00:00
Search period end: 10 July 2022 00:00
Orbit: 580 x 599 km, 97.6° (Epoch: 29 June)

Date Brightness Start Highest point End Pass type
(mag) Time Alt. Az. Time Alt. Az. Time Alt. Az.
06 Jul ? 10:30:48 10° ENE 10:31:26 10° E 10:32:03 10° E visible
07 Jul ? 10:37:31 10° ENE 10:39:20 13° E 10:41:10 10° ESE visible
08 Jul ? 10:44:48 10° NE 10:47:14 15° E 10:49:41 10° SE visible
09 Jul ? 10:52:14 10° NE 10:55:08 18° E 10:58:01 10° SE visible
